Theta_e
346 346 346 347 347 347 347 347 345 344 343 343 342 342 345 347 349 350 350 351 351 347 343 344 344 344 344 345 346 346 346 348 348 346 344 334 324 324 326 326 327 327 325 328 329 330 331 331 330 329 327 332 337 338 336 337 338 339 339 339 339 339 341 342 341 340 340 341 341 341 340 340 339 339 339 338 338 339 339 338 337 338 338 338 339
347 346 346 347 347 346 348 348 345 343 343 344 342 340 343 347 349 349 350 351 349 346 344 344 344 345 345 345 346 346 347 348 348 347 343 333 324 324 325 326 328 326 325 330 334 335 336 335 333 331 328 329 336 338 336 336 337 338 338 339 339 339 339 341 342 340 340 340 341 340 340 340 339 338 339 339 338 338 338 337 336 337 338 338 338
347 346 346 345 345 346 346 346 345 342 344 345 343 341 343 346 348 350 351 351 348 344 344 344 344 345 346 345 347 347 347 349 348 346 342 331 323 324 326 326 328 328 327 332 335 337 338 338 336 335 332 332 335 337 336 336 336 337 338 339 339 339 338 340 341 341 340 341 341 340 339 339 338 337 338 339 338 338 337 337 337 337 338 338 338
348 346 345 345 345 345 345 345 344 343 345 345 344 343 343 345 349 351 351 352 351 345 343 344 344 345 346 346 346 346 348 348 347 346 342 331 323 324 326 326 328 328 328 332 334 337 339 338 337 337 336 335 336 336 336 336 336 337 338 338 338 338 338 339 341 341 341 341 340 340 339 338 339 339 338 338 337 337 336 337 337 337 337 338 338
348 346 345 345 344 344 344 344 343 343 346 346 345 344 343 347 351 351 347 348 349 345 342 342 344 344 345 346 346 347 348 349 348 346 341 330 323 324 325 325 326 326 326 327 330 334 337 337 337 337 337 336 336 336 336 336 336 337 337 338 338 338 337 339 341 341 341 341 340 340 340 340 339 339 338 338 337 336 336 336 336 336 336 337 337
348 347 345 345 344 344 344 343 344 343 345 345 346 347 347 348 349 344 338 340 343 342 341 341 342 344 345 345 346 346 348 349 348 346 341 330 323 324 326 325 326 325 324 325 327 330 334 336 337 338 338 337 336 336 336 336 336 337 338 338 338 338 338 338 340 341 341 341 340 340 340 339 338 337 338 338 337 336 336 335 335 335 336 336 336
348 346 345 344 344 344 343 344 344 344 344 343 345 348 347 344 341 336 334 336 337 339 340 341 343 345 344 344 346 346 348 350 348 346 341 331 323 324 326 325 325 324 323 323 323 326 329 334 336 338 338 338 337 336 336 336 336 337 338 338 338 338 338 338 339 341 341 341 340 340 339 339 339 338 337 337 336 336 335 335 335 335 335 335 334
348 348 346 345 344 344 343 344 344 343 344 343 342 344 343 340 338 336 334 334 335 337 338 341 345 346 344 343 346 347 349 350 348 346 342 331 323 324 325 325 325 322 320 320 319 319 323 330 335 338 337 336 335 334 333 334 336 337 337 338 338 338 338 338 338 340 341 341 341 340 340 339 339 338 336 335 334 334 334 334 333 334 334 334 333
349 348 347 345 345 345 343 344 344 343 343 343 343 342 342 340 340 337 334 334 335 335 337 344 347 345 344 344 345 348 349 350 348 345 341 332 324 323 325 325 324 320 316 316 315 316 320 326 331 333 333 333 331 330 329 330 333 336 337 338 338 338 338 337 338 340 341 340 339 339 339 339 338 337 336 335 334 334 333 333 332 332 333 333 332
350 349 347 345 344 345 344 344 343 343 343 343 343 342 342 341 341 338 336 334 334 334 340 346 347 345 345 345 345 349 350 350 349 345 342 335 324 323 325 325 323 317 312 312 313 313 317 321 323 323 328 332 330 328 328 328 329 330 333 335 337 338 338 337 338 339 340 339 338 337 337 337 336 336 335 335 334 333 333 333 332 332 332 332 331
350 350 348 346 345 344 344 344 343 343 342 342 342 343 342 341 341 339 338 335 333 336 343 347 347 345 346 345 346 349 350 350 349 346 343 336 325 322 325 325 323 316 310 310 311 312 316 319 320 324 332 335 333 329 327 328 328 328 329 332 334 336 337 337 338 338 338 338 338 337 336 336 336 335 334 334 333 333 333 332 332 332 332 331 331
350 351 349 347 345 344 344 344 344 342 342 342 342 343 342 341 341 341 340 336 334 337 345 347 346 346 346 346 347 349 350 350 349 346 344 338 327 322 323 325 322 315 310 310 310 312 318 319 322 331 336 334 334 334 330 327 328 328 329 331 333 334 335 337 338 338 337 338 338 338 337 336 336 335 334 334 333 333 332 332 331 331 331 331 331
348 349 349 347 343 343 344 345 345 343 342 341 342 342 341 340 340 341 340 336 334 339 345 347 346 347 347 346 348 349 350 351 349 346 344 340 329 321 323 325 321 313 310 310 311 314 319 318 324 334 334 330 333 337 333 329 328 327 329 332 333 334 334 335 337 338 338 337 337 337 337 336 336 335 335 334 334 332 332 331 330 330 330 330 330
346 345 346 344 343 344 346 346 346 344 341 342 342 342 342 340 342 342 340 336 334 338 344 346 346 347 347 346 348 349 349 350 349 346 344 341 332 322 322 325 321 314 310 309 312 316 318 321 328 335 335 333 335 336 331 327 328 328 330 333 334 334 334 335 336 337 337 336 336 337 337 336 335 335 334 334 333 331 331 331 330 329 330 329 329
345 343 344 345 344 346 347 346 346 344 342 342 342 342 342 342 343 343 341 337 334 336 343 346 346 345 345 346 347 348 349 349 349 347 344 342 334 322 322 324 320 314 310 309 314 315 318 327 333 335 336 335 334 331 327 325 327 327 331 334 334 333 334 335 337 338 338 337 336 337 336 336 336 336 335 334 331 328 329 330 330 329 329 329 329
346 343 344 347 347 347 347 347 346 344 342 341 341 342 342 342 344 345 342 338 335 336 341 345 346 345 345 346 347 348 349 349 349 347 344 342 335 324 321 324 319 314 310 310 315 315 320 331 335 335 336 334 329 326 325 324 326 326 330 334 334 334 334 334 335 336 337 337 337 337 336 336 336 336 335 334 332 330 331 331 330 330 329 329 329
347 347 347 347 347 347 346 346 346 344 343 342 341 342 343 344 346 345 343 340 337 338 341 344 345 345 345 347 348 348 349 349 349 348 345 343 336 325 321 323 319 312 309 311 314 314 320 330 333 335 335 331 326 324 323 321 321 322 326 332 334 334 335 334 334 334 334 334 334 334 334 334 334 334 334 333 332 333 334 333 331 331 331 330 328
347 347 347 347 347 348 348 348 348 347 346 345 343 343 344 345 346 346 345 344 342 341 343 344 345 345 345 348 348 348 349 350 350 348 345 343 338 326 322 323 319 312 310 312 316 318 320 322 329 334 334 329 324 323 320 317 316 314 320 330 334 334 335 335 335 334 333 332 332 332 332 333 333 333 333 332 332 332 332 333 332 332 331 329 328
349 349 349 349 349 350 351 351 350 351 352 351 350 349 348 346 346 347 348 347 346 346 347 347 347 346 347 349 349 349 350 350 350 348 345 343 339 327 321 323 318 311 312 314 317 321 321 319 322 329 330 326 324 322 318 316 314 313 321 331 334 333 334 335 336 336 335 335 335 334 334 334 334 334 333 332 332 332 332 331 331 331 330 329 328
350 349 348 347 346 346 348 349 350 351 353 353 352 352 352 351 350 350 349 349 349 349 350 349 348 348 348 349 350 350 350 350 350 348 345 344 339 328 322 322 318 312 312 315 316 319 321 322 322 324 326 326 324 322 318 316 314 313 321 330 333 333 334 335 335 336 337 337 336 336 335 335 335 334 334 332 331 331 330 329 330 331 331 330 329
348 346 345 344 344 343 343 344 347 348 348 349 350 350 351 352 352 351 351 351 351 350 350 350 350 349 349 350 350 350 350 350 350 348 346 345 339 328 322 321 318 312 311 313 315 318 321 323 322 322 325 326 324 321 319 317 314 311 313 320 327 331 334 334 334 335 336 336 335 335 335 335 334 333 332 332 332 330 326 322 325 329 330 329 328
347 345 344 343 343 343 343 342 344 346 345 346 349 350 349 350 352 351 350 351 351 352 351 351 351 351 350 350 350 350 350 350 350 348 346 345 339 329 322 321 317 312 310 313 316 318 320 321 320 321 324 325 324 322 320 317 315 311 308 311 320 329 333 335 334 335 335 335 336 336 335 335 334 332 331 330 328 324 317 312 314 317 318 320 320
347 344 342 342 342 343 344 344 345 346 346 346 349 350 348 347 350 352 351 350 350 351 352 351 351 352 351 350 350 350 350 350 350 348 347 345 340 330 323 320 318 313 310 313 315 316 318 318 316 318 322 325 325 323 322 319 316 313 309 310 319 329 334 334 334 335 335 335 335 334 334 333 332 331 330 326 320 314 311 310 310 310 310 311 312
344 343 341 342 344 346 346 345 346 346 346 346 347 347 345 345 348 349 350 350 348 347 350 351 352 351 351 350 350 350 350 350 350 349 347 346 341 332 323 320 318 314 311 313 314 315 316 315 314 314 319 323 324 323 323 320 315 312 309 309 317 328 333 333 334 334 334 334 333 333 332 331 331 330 326 319 313 311 312 312 312 311 312 312 313
340 341 341 342 345 345 345 345 344 343 342 343 344 344 343 344 344 344 348 351 350 347 346 347 349 351 351 350 349 349 348 347 347 348 348 346 342 333 324 320 318 314 311 312 314 314 315 314 313 314 316 317 318 318 318 316 313 311 309 311 321 330 332 332 333 333 333 333 332 330 329 327 325 322 318 315 314 314 313 313 314 314 314 315 315
342 342 341 342 343 343 344 345 344 342 342 343 344 343 343 344 344 344 348 352 353 350 347 346 348 349 350 349 348 348 347 345 345 347 347 345 342 332 324 321 319 314 311 312 314 315 315 314 313 313 312 312 313 313 313 312 310 309 310 318 327 331 331 331 332 332 332 331 329 327 327 324 320 317 318 321 322 320 318 318 319 319 320 320 319
343 342 341 341 341 341 343 344 344 344 343 342 342 343 343 342 342 342 345 348 350 349 347 347 349 349 348 349 348 347 345 344 346 347 346 344 340 332 324 321 318 313 312 314 315 315 314 313 313 313 312 312 313 313 312 311 311 313 318 325 329 329 330 330 331 331 330 329 328 327 326 323 319 319 322 325 325 324 324 325 326 326 325 324 323
344 342 341 340 341 341 342 342 342 342 342 340 338 339 341 341 342 343 344 345 346 344 343 346 348 347 347 347 344 343 342 342 346 348 347 347 344 337 330 323 317 316 318 317 315 315 315 313 314 315 313 315 318 320 318 317 319 323 326 327 328 328 328 328 329 330 330 328 327 326 324 323 323 325 326 326 325 326 328 328 327 327 326 326 326
350 347 343 340 340 341 341 341 341 340 340 340 339 340 342 343 345 347 347 347 346 345 344 346 347 345 344 344 342 340 339 339 342 345 347 349 348 343 338 329 320 320 325 319 314 315 316 315 316 317 317 320 325 327 326 326 327 328 328 327 327 326 324 325 327 328 328 327 327 326 325 326 327 328 328 327 326 327 327 326 326 327 327 327 326
352 352 349 345 344 344 344 344 344 343 342 343 344 346 349 349 350 351 351 350 350 348 347 350 350 346 342 343 342 339 337 337 340 345 348 349 347 344 340 332 322 325 328 321 314 316 317 317 321 324 324 325 329 330 330 329 329 328 327 327 327 326 324 325 327 325 325 326 327 326 327 328 327 328 329 327 326 326 325 324 325 327 327 327 326
352 352 349 347 347 349 349 348 347 347 347 348 348 350 350 350 349 350 352 353 355 353 351 351 352 348 345 343 340 339 339 339 341 346 349 349 347 343 338 331 324 325 326 319 314 317 318 317 323 328 328 327 329 329 329 329 328 328 327 326 327 327 325 326 327 325 324 326 326 325 326 327 326 327 328 327 327 327 325 324 326 327 327 327 326
351 352 351 348 347 349 349 349 348 347 346 345 344 343 344 344 345 348 352 354 357 356 353 351 351 350 348 346 343 341 340 339 341 347 349 348 346 341 335 329 324 323 320 315 314 318 317 316 322 328 329 328 329 328 328 328 327 327 326 325 326 326 325 326 327 326 324 325 326 325 325 325 326 327 327 326 326 326 326 326 327 327 327 327 327
350 351 353 353 352 352 352 352 351 347 343 342 342 345 348 349 350 352 354 354 355 354 352 351 351 351 349 348 348 347 343 340 342 347 349 347 344 339 332 327 325 323 318 312 313 317 314 315 323 330 329 329 330 329 328 328 327 326 326 326 325 324 325 326 325 325 325 325 325 324 324 324 325 327 327 326 326 327 326 326 326 326 326 327 327
350 351 352 353 354 354 354 354 353 350 347 347 348 350 351 349 348 349 350 350 350 349 349 349 350 350 349 348 349 350 348 344 344 348 349 346 342 337 331 326 326 326 321 313 312 315 312 314 323 330 330 329 331 330 329 329 328 326 325 325 325 324 325 326 324 323 325 325 323 323 324 324 324 325 326 326 327 327 326 326 325 325 325 326 326
350 351 352 353 354 355 355 355 354 353 352 351 352 352 351 349 348 349 348 348 347 347 347 347 348 349 349 347 347 348 348 348 348 350 348 345 341 336 330 326 327 329 326 318 313 312 312 316 324 329 329 329 331 331 330 330 330 327 325 324 324 325 325 324 322 322 323 323 322 323 323 322 323 325 325 326 327 327 326 325 324 324 324 325 326
349 351 352 353 353 353 355 355 355 355 355 354 352 352 352 351 351 350 349 348 347 346 347 348 349 349 349 347 346 347 347 349 350 349 346 344 340 335 330 327 327 328 328 324 317 314 317 324 328 328 328 330 330 331 331 330 330 329 327 325 325 326 325 323 321 322 323 323 323 323 322 322 322 323 323 325 326 325 325 325 324 323 323 324 325
349 350 351 351 352 352 352 354 354 354 355 355 353 352 352 352 351 350 348 348 348 347 348 350 350 349 348 347 347 347 348 349 348 346 344 341 338 334 331 328 326 326 327 326 321 317 319 326 330 328 328 330 331 331 331 331 330 330 329 327 327 327 325 323 322 323 323 323 324 324 323 322 323 322 322 323 324 325 325 325 323 322 322 322 322
347 346 345 346 349 350 351 352 352 352 352 352 352 351 351 351 351 349 346 346 348 348 347 349 351 350 349 348 347 348 349 349 347 344 343 340 336 333 331 329 327 326 325 325 324 319 318 323 328 329 328 329 330 330 330 331 331 331 330 329 328 328 327 325 324 324 324 323 324 324 323 322 322 322 322 323 323 325 325 325 324 323 321 320 320
346 345 343 342 344 346 348 350 351 350 350 350 349 349 349 349 349 348 345 344 345 346 346 348 349 349 349 350 349 349 349 349 347 345 343 341 337 333 331 330 329 328 326 326 326 322 318 320 326 329 328 328 330 330 330 331 331 331 331 330 329 328 327 326 325 324 323 324 324 324 323 323 323 322 322 322 323 324 325 325 324 323 321 319 320
345 345 346 344 343 342 344 346 348 349 350 349 348 348 349 349 349 348 346 344 343 342 342 343 344 344 345 347 349 350 349 349 347 345 343 341 338 334 331 331 331 331 328 327 327 324 320 322 327 329 327 328 329 329 330 331 331 331 331 330 329 328 327 327 326 325 323 323 324 325 324 324 324 323 322 323 323 324 325 325 324 323 322 321 321
343 345 346 345 344 344 343 344 345 347 349 349 348 347 348 349 349 348 346 345 344 343 341 340 340 340 342 343 347 349 349 349 348 346 344 343 341 335 331 331 332 330 328 328 327 324 323 325 328 328 326 327 328 328 328 330 331 331 330 329 328 328 327 326 326 325 324 322 323 324 324 323 323 324 323 322 323 324 325 324 324 323 322 322 322
338 342 344 345 346 346 345 345 345 345 345 347 348 347 347 348 349 348 346 345 345 344 344 345 344 345 345 346 346 348 348 348 348 347 345 344 342 338 333 331 331 330 328 326 326 326 325 326 327 326 324 324 325 326 327 328 329 330 329 329 328 328 327 326 326 326 325 323 323 323 324 323 323 323 323 322 322 323 324 324 324 323 322 322 322
331 335 340 343 344 345 345 345 345 345 344 344 346 347 347 347 347 348 348 347 346 346 345 346 346 347 349 348 347 347 348 347 347 347 346 345 342 337 334 332 332 332 329 326 325 326 328 327 325 324 322 319 319 322 325 327 328 329 329 329 328 328 327 326 326 327 326 325 324 324 323 322 322 322 322 322 322 322 323 324 324 323 323 322 322
324 328 333 338 342 343 344 344 345 345 345 344 344 345 346 346 347 348 348 347 347 347 346 345 344 346 347 348 346 346 347 347 345 346 346 344 341 338 337 336 335 333 330 327 326 327 329 328 325 323 320 316 315 317 321 325 327 328 328 329 329 328 328 327 326 327 327 326 326 326 324 323 322 322 321 321 322 322 323 324 324 324 323 323 323
324 328 332 337 340 342 343 344 344 345 344 344 344 344 345 345 346 347 348 347 347 346 346 344 343 344 346 347 345 346 346 345 345 345 343 342 341 340 339 338 335 333 330 328 328 328 327 325 323 321 319 316 314 314 316 321 326 328 328 329 329 328 328 327 327 327 327 327 326 326 325 323 322 322 321 321 322 322 323 323 324 324 324 323 323
323 327 330 333 337 340 341 342 343 344 345 344 344 344 344 344 344 345 346 346 345 345 344 344 344 346 347 347 346 345 346 345 344 344 343 341 340 340 339 337 335 332 330 329 329 329 326 322 320 319 316 315 313 312 311 316 322 326 327 328 329 329 329 327 327 327 327 327 327 327 326 324 323 321 321 321 321 322 323 323 324 324 323 323 323
321 326 328 330 333 337 339 339 340 342 344 345 344 343 343 343 343 343 344 344 344 344 344 343 343 345 347 346 346 346 345 344 344 344 343 341 340 339 339 338 337 334 332 332 331 330 328 324 320 317 313 311 311 310 310 313 318 322 324 325 327 329 329 328 327 327 327 328 327 326 326 325 323 322 321 322 322 322 322 323 323 324 323 323 323
326 331 333 331 329 331 336 339 340 340 342 343 345 344 343 342 343 342 343 344 343 343 343 342 342 343 345 346 346 346 345 344 344 343 343 342 340 339 339 340 339 336 335 334 332 331 329 326 321 317 313 311 310 309 309 311 314 316 317 318 321 324 327 329 329 327 327 328 327 325 325 325 324 322 322 321 322 322 322 322 323 323 324 323 323
325 330 334 334 332 329 330 335 339 341 341 341 344 344 344 342 342 342 342 342 343 343 343 342 342 342 343 344 345 346 345 344 344 343 343 342 341 339 339 339 338 336 335 334 332 330 329 326 323 319 315 312 311 310 310 310 311 313 314 313 314 317 322 326 328 328 327 327 326 325 324 324 324 323 322 322 321 321 322 323 323 323 323 324 323
325 327 330 333 334 332 328 328 333 338 341 341 342 344 344 344 342 342 342 341 342 342 343 342 341 341 342 342 343 345 345 345 344 343 342 342 340 339 338 337 337 336 334 332 330 329 327 325 323 321 317 314 312 311 310 310 310 311 311 311 311 312 317 322 326 326 325 325 326 325 323 323 323 322 322 322 322 321 321 322 323 323 323 323 323
324 325 326 328 331 333 331 328 328 332 337 340 341 341 343 344 344 343 342 342 341 341 342 342 342 340 340 340 342 344 345 344 343 342 342 341 340 339 338 338 338 336 333 331 329 327 325 323 322 320 319 316 313 311 310 311 310 309 308 308 309 311 315 321 325 325 323 323 325 326 324 322 322 322 322 323 322 322 321 322 322 323 323 323 323
Wind_Speed
23 22 21 19 17 17 16 17 18 16 15 14 14 14 14 13 12 11 10 9 9 8 6 5 4 5 7 7 5 5 8 11 13 15 16 13 9 7 6 6 6 7 7 7 7 8 9 11 12 12 11 11 10 9 9 9 9 8 8 8 8 7 6 7 9 9 9 10 10 9 8 9 12 13 12 12 12 10 8 8 9 11 12 11 12
25 23 22 20 19 18 17 18 18 16 14 14 15 15 15 14 12 12 11 11 11 9 7 6 5 5 6 5 4 5 7 10 13 15 15 12 8 7 6 5 5 6 7 6 5 6 7 8 10 10 10 12 12 10 9 9 9 9 8 7 6 7 7 7 8 8 9 10 9 9 10 10 11 12 11 11 11 9 9 10 12 14 15 14 15
25 23 22 21 19 19 20 20 19 16 15 15 15 15 15 14 13 12 11 11 11 10 8 7 6 5 5 4 4 5 6 9 12 14 14 10 7 6 5 5 4 5 6 5 5 5 6 6 8 8 9 11 11 11 10 9 8 8 7 7 7 7 7 7 7 7 9 9 9 9 10 11 12 13 13 11 10 9 11 13 14 14 14 14 15
24 23 23 21 20 20 21 21 20 17 16 16 15 15 16 14 13 14 13 11 11 11 9 8 7 6 5 4 4 5 6 9 11 14 13 9 6 5 5 4 3 3 3 3 3 4 5 5 6 7 8 10 11 11 10 9 8 7 7 7 7 7 8 8 7 7 7 8 9 9 10 10 11 12 12 11 11 11 13 14 14 15 15 14 14
25 24 23 22 21 21 21 21 20 18 17 17 15 15 16 15 15 17 16 13 13 13 10 9 9 7 6 5 5 5 6 8 11 13 12 8 5 4 4 3 2 2 3 3 3 3 4 4 5 6 6 7 8 9 9 9 8 7 6 7 6 6 8 8 6 7 7 8 9 10 10 10 11 11 11 11 12 13 15 17 18 18 18 17 16
27 25 24 23 22 22 21 21 20 19 19 19 16 15 16 17 18 19 18 16 16 15 11 10 10 9 8 7 6 6 6 8 10 12 12 8 4 3 3 3 2 2 3 3 3 3 4 4 4 5 5 5 6 6 7 8 8 6 6 7 6 7 9 8 6 6 7 8 9 10 10 10 11 11 11 11 11 12 13 15 19 22 21 19 19
28 26 25 24 22 22 21 20 19 18 19 19 17 17 18 18 18 18 18 17 16 15 12 12 12 11 10 8 7 6 6 8 10 12 11 8 4 3 3 3 3 3 3 3 3 3 3 3 3 4 4 4 5 6 6 7 7 6 6 7 7 7 8 8 7 7 7 8 9 9 10 10 10 11 11 11 11 12 11 11 14 19 21 20 19
29 27 26 24 22 22 21 20 19 18 18 19 19 19 19 17 17 17 17 17 16 15 14 13 13 13 11 10 8 6 6 7 10 11 10 7 4 2 2 2 3 3 3 3 3 3 3 3 3 2 2 2 4 6 6 6 6 5 6 6 6 6 7 7 8 7 7 8 8 9 9 9 10 10 11 11 12 12 11 11 11 13 16 18 17
30 29 27 24 22 22 21 20 19 18 18 19 20 20 19 16 16 17 17 17 17 16 15 14 14 14 12 10 8 7 6 7 9 10 10 7 4 2 2 2 2 3 3 2 3 3 2 1 1 1 0 1 4 6 7 7 6 5 5 5 6 6 7 7 8 7 7 8 9 9 10 10 10 10 10 11 12 11 11 11 11 10 11 13 15
31 30 27 24 22 22 21 21 19 18 18 19 20 20 19 17 17 17 17 17 18 17 16 15 15 13 11 10 8 7 7 7 9 10 9 7 5 3 1 1 2 3 2 2 3 4 3 2 2 1 1 2 3 5 6 6 6 7 7 7 6 6 7 8 7 7 7 9 10 11 11 12 11 10 11 11 11 11 10 9 10 10 9 10 12
33 31 28 24 23 22 21 20 18 18 18 19 20 20 19 18 17 17 18 18 18 18 17 16 14 13 11 10 8 8 8 8 8 10 9 7 4 3 2 2 2 3 3 2 3 4 4 3 2 1 2 1 2 3 6 7 6 7 8 8 8 7 8 8 8 7 7 9 10 10 11 11 10 10 11 11 10 10 9 8 9 9 9 9 9
34 32 29 26 23 22 20 18 17 18 19 20 20 19 18 18 18 18 18 18 18 19 18 16 14 13 12 10 9 10 9 8 9 10 9 7 5 3 2 2 2 3 3 3 3 4 4 2 1 1 2 2 0 2 4 6 6 7 7 8 8 9 8 9 9 8 7 7 9 9 9 9 9 9 10 10 10 9 9 9 9 9 9 9 9
33 32 30 26 22 21 19 17 16 17 19 21 20 19 18 18 18 18 18 18 19 20 19 17 14 13 12 10 10 11 10 8 9 10 10 8 5 3 3 2 3 4 4 4 4 3 3 1 3 3 3 4 2 1 2 5 6 6 6 7 7 8 9 10 10 10 8 7 9 9 8 8 8 8 9 9 8 9 10 11 11 11 10 10 10
31 28 28 24 21 20 19 16 16 18 20 21 20 19 19 18 18 17 17 18 20 21 21 18 15 14 12 11 11 11 10 9 9 10 10 8 6 4 3 3 4 5 5 4 3 3 1 1 4 4 3 3 2 1 3 5 6 6 5 5 6 7 8 9 10 10 8 7 9 10 8 8 8 9 10 9 8 9 10 11 11 12 12 12 12
28 24 25 24 20 19 17 15 16 18 20 20 20 20 19 17 16 17 18 19 20 22 21 19 17 14 13 12 13 13 11 10 10 10 9 9 7 4 4 4 5 5 5 4 3 2 1 2 4 4 4 4 4 4 6 7 6 5 5 5 5 6 7 8 8 8 7 7 8 9 8 8 8 9 9 9 10 11 11 10 11 13 13 14 14
25 22 23 21 18 17 14 13 15 17 19 20 20 19 18 17 16 16 18 19 21 22 22 20 18 16 14 13 14 15 13 11 11 10 10 9 7 5 5 5 5 6 6 5 4 2 2 4 5 4 4 5 6 7 8 9 7 5 5 6 5 5 6 7 7 7 8 8 8 8 7 7 8 8 8 8 11 12 11 10 10 11 12 12 13
17 17 18 17 15 14 12 12 14 16 18 18 18 18 17 17 16 17 18 20 21 22 22 20 19 17 16 15 15 16 15 12 11 10 10 10 8 6 6 6 6 7 6 5 4 2 2 4 5 4 4 7 8 9 10 10 7 5 6 7 5 5 5 5 6 7 8 9 9 8 8 9 9 8 8 8 10 10 9 8 8 8 8 10 11
6 7 9 9 10 10 11 12 12 12 14 14 15 16 16 16 17 16 18 19 20 21 20 20 19 18 17 16 16 17 16 14 12 11 10 10 9 8 8 8 8 8 7 6 5 2 2 4 5 4 5 8 10 11 11 11 8 6 7 8 7 5 4 4 5 6 7 8 8 8 9 9 9 8 8 8 10 9 7 6 6 6 7 8 9
2 5 8 8 7 6 7 9 8 7 8 9 10 11 12 13 15 16 17 19 20 20 19 19 19 18 18 17 17 18 18 15 13 11 10 10 10 9 9 9 10 9 8 7 5 3 3 4 5 5 7 10 12 12 12 11 9 8 7 8 8 7 5 5 5 6 6 6 6 6 7 8 8 7 7 7 8 7 5 5 6 6 6 7 7
2 3 6 7 6 5 5 6 7 5 4 4 5 6 8 10 12 14 16 18 20 20 19 19 19 18 18 18 18 19 19 16 14 12 11 11 11 11 10 10 11 11 9 7 6 4 5 5 5 6 8 10 12 12 12 11 10 8 8 8 8 7 6 7 8 7 5 4 5 5 6 7 6 5 6 6 5 4 4 5 6 6 6 5 5
7 3 4 5 3 3 4 4 4 3 2 1 1 2 5 7 10 12 14 17 19 20 20 21 20 19 19 18 18 20 20 17 14 12 11 12 13 12 11 11 12 12 10 8 7 6 6 7 7 7 8 10 12 12 12 11 9 8 8 8 8 9 8 8 9 8 5 4 5 5 5 6 6 5 5 4 3 3 4 5 6 6 7 7 7
16 10 6 5 3 3 5 5 3 3 3 1 4 4 2 3 7 10 13 15 18 19 20 22 22 22 21 19 19 21 20 17 15 13 12 14 14 13 12 13 13 13 12 10 10 9 9 10 9 8 9 11 11 12 11 10 8 7 6 6 8 10 10 7 7 6 5 4 4 4 5 6 5 5 6 5 5 6 7 7 8 8 10 12 12
21 17 14 14 11 6 7 8 7 4 4 4 7 6 4 6 6 7 11 14 16 18 19 21 21 21 22 21 20 21 21 19 17 15 14 15 15 14 14 14 14 14 13 13 12 11 11 11 9 8 10 11 11 11 10 9 8 7 6 7 9 12 11 7 6 6 5 5 5 5 6 6 6 7 7 7 8 10 10 10 11 12 13 15 16
19 18 16 16 14 10 9 11 10 7 6 8 10 7 5 9 9 8 11 14 16 17 17 18 19 19 20 20 21 22 23 22 19 16 16 16 16 16 15 15 15 15 15 14 13 13 12 11 9 9 11 12 11 11 10 9 8 6 7 9 10 10 10 8 7 6 6 6 6 6 6 7 7 8 9 9 11 12 13 13 14 15 15 16 16
15 18 19 19 16 13 12 13 15 13 12 14 15 13 11 12 10 11 14 14 16 17 17 16 16 15 14 14 14 16 18 19 19 18 17 17 18 17 16 16 17 17 16 16 15 14 12 11 10 11 12 12 11 11 10 9 8 8 10 11 10 8 8 8 7 7 8 7 7 6 7 8 9 11 12 13 13 13 14 14 15 15 16 16 16
12 14 18 20 20 17 15 16 17 16 17 19 19 17 15 13 10 14 17 16 16 16 16 16 15 15 15 14 13 13 15 18 19 20 20 20 20 19 19 18 18 17 17 16 15 15 13 12 12 13 13 12 11 11 10 9 9 11 13 12 9 8 9 9 8 8 9 8 8 7 7 9 11 12 13 12 11 11 12 13 13 13 13 13 13
15 13 13 15 17 18 17 17 17 16 17 17 19 19 17 14 14 17 20 21 22 21 21 21 18 16 14 15 15 15 16 19 22 23 23 23 23 22 21 20 19 18 18 17 16 16 15 14 14 13 13 12 12 11 11 10 10 11 10 9 8 9 10 11 10 10 10 9 9 8 8 9 11 11 11 10 10 10 10 9 9 8 9 10 11
17 16 15 16 18 17 17 17 18 19 18 17 19 21 21 22 23 24 24 26 28 29 30 29 24 17 12 11 12 13 12 15 22 25 25 25 25 24 23 22 21 20 17 18 19 19 17 16 16 14 14 13 13 13 12 11 10 9 8 8 9 10 11 12 12 11 11 10 10 10 10 10 9 8 8 8 8 8 7 7 7 7 7 7 8
15 16 18 21 21 19 18 19 21 23 23 23 23 25 26 27 28 29 29 30 30 31 33 33 31 27 21 15 13 12 11 12 17 22 24 24 24 24 23 23 23 19 15 18 22 21 19 19 18 16 16 15 14 13 13 11 11 10 9 10 10 10 11 12 11 11 12 12 11 11 10 8 7 6 6 6 7 7 7 7 8 7 6 5 5
13 14 17 20 22 22 23 25 25 24 25 25 24 23 24 26 28 30 33 35 34 32 32 31 31 32 31 24 18 14 13 13 16 19 21 22 24 23 23 24 24 19 15 19 24 22 21 21 19 17 17 17 15 15 14 13 12 12 12 11 10 10 12 11 10 11 12 12 10 10 8 7 7 6 6 5 6 6 7 7 7 6 5 5 4
10 12 15 17 20 21 22 22 21 19 20 20 20 21 23 26 28 29 32 35 36 35 33 30 27 28 30 29 24 21 18 17 19 21 21 21 24 24 24 24 24 20 19 23 25 23 22 23 19 16 17 17 16 15 14 14 13 13 13 12 11 11 12 12 11 12 12 11 10 9 8 7 6 6 6 6 6 6 6 6 6 5 5 4 4
7 10 12 15 17 17 17 17 17 17 17 17 19 21 23 25 26 26 28 31 34 35 35 31 26 24 24 23 23 24 22 20 22 24 23 21 23 25 25 25 24 21 21 25 25 23 24 24 20 17 17 17 16 16 15 14 14 14 13 13 12 12 12 12 13 13 12 11 10 9 8 8 7 7 7 7 7 7 6 6 6 6 5 5 5
8 9 11 13 14 14 14 14 15 16 16 17 17 18 19 21 22 23 25 27 28 30 32 30 27 26 24 21 20 22 22 22 24 26 25 22 22 25 26 26 24 22 24 27 26 24 25 24 20 18 18 17 16 16 15 14 14 14 14 13 13 12 12 13 14 14 12 11 10 9 9 8 7 7 8 8 8 7 6 6 6 5 6 7 6
11 10 10 11 11 11 10 11 12 14 15 15 14 14 16 18 20 20 19 20 22 25 28 28 28 27 25 22 21 21 22 25 28 29 27 22 21 24 27 27 26 25 26 27 26 25 26 26 22 19 18 18 17 16 16 15 14 14 14 13 12 13 13 14 14 14 12 11 11 10 9 9 9 8 8 8 8 7 7 6 5 5 7 8 7
12 12 11 9 9 9 9 10 11 13 14 14 14 14 16 18 18 16 14 14 17 19 19 20 23 25 25 24 23 22 24 28 31 30 27 23 21 25 30 31 31 29 28 28 27 25 26 26 23 20 19 19 17 16 16 15 15 15 15 14 13 13 14 14 14 14 12 11 11 10 10 10 10 9 9 9 8 8 7 7 6 6 7 7 8
12 12 11 11 10 9 9 10 11 13 14 15 15 16 17 18 16 14 11 10 10 12 13 14 18 22 23 24 23 23 25 28 30 30 28 24 23 28 33 36 35 33 32 32 30 27 25 23 22 21 20 19 18 17 16 15 15 15 15 14 14 13 13 13 14 14 13 11 11 11 11 10 10 9 9 9 9 8 8 7 6 6 7 7 8
10 11 11 12 12 11 11 11 13 15 16 16 18 19 18 18 16 14 12 11 11 13 15 16 17 18 20 23 24 25 26 27 28 28 27 24 23 29 35 38 37 34 34 34 32 29 27 24 21 21 21 20 18 18 16 16 16 15 15 15 14 13 14 14 14 14 14 12 11 11 11 10 10 10 9 9 9 9 8 8 7 7 8 9 9
10 10 11 13 14 13 12 12 13 16 16 16 18 19 19 19 18 16 13 13 13 15 17 18 16 15 16 20 23 26 28 28 28 29 28 27 27 30 34 37 38 35 33 33 32 30 29 26 23 22 22 21 19 19 17 16 16 16 16 16 15 14 14 15 15 15 15 13 12 12 11 11 10 10 9 9 9 10 9 9 8 8 9 10 9
11 11 13 14 14 14 15 15 15 16 16 16 18 19 19 19 21 19 16 14 15 16 18 17 16 15 14 16 20 24 28 29 30 31 32 31 31 31 33 36 37 36 34 33 31 29 29 28 25 23 23 23 21 20 19 17 16 16 16 17 17 16 15 15 15 16 17 15 13 12 12 11 11 11 10 9 9 10 10 10 9 8 9 10 9
12 12 13 14 14 13 14 16 17 17 17 17 18 18 17 18 21 22 21 19 18 18 18 17 17 17 16 17 19 23 27 31 32 32 32 31 31 34 35 33 31 32 35 34 32 29 29 28 26 25 25 24 23 23 21 19 17 17 17 17 17 17 17 16 15 16 17 17 14 13 13 13 12 12 11 10 9 10 11 11 10 9 10 10 9
15 12 12 13 15 14 12 12 14 16 17 17 17 16 15 16 18 20 22 21 20 21 21 21 21 21 20 19 19 21 24 28 30 30 30 30 31 35 37 32 27 30 34 34 31 29 29 28 27 27 27 26 25 25 25 22 19 18 18 18 18 17 17 17 16 15 17 18 16 14 14 14 13 13 12 11 11 10 11 12 12 11 11 11 10
19 17 14 12 12 13 11 10 11 13 15 16 16 15 14 14 14 17 19 20 20 21 23 24 25 26 25 22 21 21 22 24 27 29 30 31 32 35 38 35 32 33 34 32 29 29 29 30 30 29 29 30 29 29 27 25 22 19 18 19 19 18 17 17 17 16 16 17 17 16 15 14 14 14 13 12 12 11 11 12 12 12 11 12 11
20 20 19 16 14 13 12 10 11 13 14 15 16 15 15 14 14 14 16 18 19 20 21 22 25 28 27 24 23 24 24 25 27 29 30 31 33 34 36 36 35 35 34 31 29 29 29 31 31 31 31 32 33 31 29 26 24 22 20 19 19 19 18 17 17 17 17 16 16 16 15 15 15 16 15 14 13 12 12 13 13 12 12 12 12
20 20 21 21 18 16 14 12 11 12 13 15 15 15 16 16 15 14 15 15 16 18 19 18 19 23 25 24 25 27 28 28 28 29 30 32 33 33 34 35 36 35 33 30 29 28 29 30 31 31 31 32 34 33 31 28 26 23 22 20 20 20 20 18 18 18 17 17 16 16 16 15 15 16 17 15 14 13 13 13 14 14 13 13 13
18 18 19 20 19 18 16 15 13 12 13 14 14 15 16 17 17 16 16 15 14 15 15 15 16 20 22 23 26 28 29 29 29 29 30 31 31 31 31 33 34 33 32 30 28 28 29 31 31 31 31 31 33 34 34 31 28 25 23 22 21 21 20 20 19 18 18 18 17 17 17 16 16 17 17 17 16 14 13 14 15 15 14 14 13
18 18 18 18 19 20 19 17 15 14 13 13 13 13 14 16 16 16 15 15 14 13 12 13 17 21 22 22 25 27 28 29 28 28 28 29 29 30 31 32 32 32 33 32 29 27 28 29 30 31 32 32 32 35 36 34 31 29 27 24 22 21 20 20 19 19 18 19 18 17 17 17 17 17 18 17 16 15 15 14 14 15 16 15 14
19 18 18 19 19 19 20 19 18 17 16 15 13 11 12 14 16 15 14 14 15 14 11 10 14 19 21 22 25 26 26 27 27 26 26 27 28 29 32 33 33 33 33 32 29 27 28 28 30 32 34 33 33 35 36 35 34 33 32 29 26 23 21 20 20 20 20 19 19 18 18 17 17 18 18 18 17 16 16 15 15 15 15 16 15
18 17 17 18 19 19 19 19 19 19 19 18 16 14 13 14 16 16 15 14 15 16 14 12 13 16 19 21 24 26 26 26 26 26 27 28 26 25 29 33 34 33 32 31 30 30 29 29 31 33 35 34 34 35 36 36 36 36 35 33 31 28 25 22 21 20 20 20 19 19 18 18 18 18 18 19 18 17 16 16 16 15 15 16 15
20 18 17 17 19 20 20 19 19 19 19 19 19 17 15 14 15 16 16 17 19 21 20 18 18 20 22 23 24 26 28 28 27 27 29 30 26 22 23 29 33 33 32 31 31 32 31 31 31 34 35 35 36 36 37 37 37 36 35 34 33 32 30 27 24 22 21 21 20 19 19 19 19 18 19 19 19 18 17 17 16 16 16 16 16
21 20 19 18 18 20 21 21 20 20 20 20 20 18 16 15 14 14 16 18 20 22 23 22 22 24 26 27 27 28 30 33 32 30 29 29 25 20 20 25 30 32 32 31 31 32 32 32 33 35 37 38 38 38 38 37 37 36 34 33 33 33 32 31 28 25 24 22 20 19 19 19 19 19 19 19 19 19 18 17 17 17 17 17 17
21 22 22 21 20 20 21 21 21 21 21 22 22 21 20 18 15 14 15 17 19 20 23 24 22 22 24 28 30 30 31 33 33 31 29 27 25 21 21 26 31 32 31 31 32 33 33 34 35 37 38 39 40 39 38 37 37 35 33 33 33 32 32 31 29 28 26 24 22 20 20 20 20 20 21 20 19 19 19 18 18 18 17 17 17
Wind_Direction
212 212 215 215 214 211 209 213 215 215 219 220 217 214 215 216 217 220 220 220 230 239 240 239 254 291 308 315 327 347 348 343 342 344 351 356 357 4 12 23 41 46 46 49 49 46 43 40 39 39 42 46 44 40 33 21 16 17 21 22 17 25 35 28 31 37 40 52 55 46 48 53 55 59 60 57 57 55 48 49 61 66 63 59 59
214 211 215 217 217 212 208 213 217 215 214 217 218 215 214 215 217 219 219 222 230 232 231 233 245 281 298 304 318 341 345 340 339 342 347 353 354 4 15 23 37 37 36 43 47 49 45 40 40 38 44 51 44 38 41 33 20 16 20 23 17 26 40 35 33 41 45 54 56 44 50 61 60 58 58 56 56 56 57 61 67 73 71 63 61
215 212 214 216 218 217 214 218 219 215 211 213 216 214 213 215 218 218 218 224 227 223 224 232 243 268 282 290 312 332 339 337 337 340 345 349 351 4 18 23 35 35 33 42 49 54 50 40 40 36 36 46 43 38 42 38 30 24 19 23 24 26 41 43 31 37 50 57 57 51 52 56 53 53 56 58 58 59 63 66 69 75 76 69 65
215 214 214 214 217 220 219 219 219 216 212 212 213 212 212 214 218 219 215 216 223 224 225 233 238 253 266 277 302 320 331 335 335 337 341 346 348 4 20 22 36 37 29 46 55 57 55 41 38 36 30 34 34 34 40 40 35 30 22 26 26 23 45 53 34 34 54 59 58 58 55 52 50 52 56 59 61 66 71 73 76 78 79 76 72
215 214 214 215 217 219 217 216 218 217 214 212 212 213 212 211 218 223 219 216 222 227 231 233 234 245 259 269 290 309 323 330 333 334 337 342 345 4 23 18 23 9 348 9 41 52 55 41 33 35 34 37 34 30 35 39 39 34 27 31 32 30 48 58 42 38 56 62 61 61 59 56 57 61 66 68 70 73 75 78 80 80 78 78 77
216 213 214 215 216 218 217 215 217 217 215 216 213 211 212 214 220 227 225 222 225 229 232 233 233 241 253 263 278 296 315 327 331 331 332 337 341 1 22 16 8 352 339 352 17 38 55 52 36 30 32 41 40 32 34 38 37 34 32 34 35 36 45 56 57 50 54 62 65 65 64 61 60 65 70 75 80 78 74 74 77 79 79 77 77
216 215 215 215 215 219 218 215 216 218 219 221 218 214 217 223 228 231 229 225 225 226 227 229 231 236 247 257 268 286 306 321 328 328 328 331 336 356 22 14 358 341 332 344 356 11 44 61 48 32 29 36 36 30 34 38 33 32 37 37 38 43 44 50 61 62 56 60 64 64 62 61 65 73 75 76 78 77 72 69 71 77 81 79 77
216 216 217 216 216 218 219 217 217 218 221 223 223 223 225 229 231 232 229 224 222 222 221 224 229 233 242 253 262 276 296 313 324 325 323 326 333 347 12 10 351 331 327 334 338 346 13 49 59 50 38 40 42 38 38 42 38 34 40 39 40 50 53 56 65 63 56 60 64 62 63 66 72 78 79 74 70 70 71 72 70 74 80 81 78
217 218 219 218 216 217 219 220 220 219 221 222 224 226 228 228 229 230 229 224 221 218 214 218 227 232 238 250 258 268 286 306 318 320 319 324 330 333 354 355 331 319 321 323 324 333 354 27 37 39 353 11 39 45 46 52 53 49 49 47 46 49 54 67 76 70 60 63 66 68 70 73 76 79 76 70 67 67 70 72 74 73 75 79 79
217 220 221 218 217 218 220 224 225 223 223 222 222 225 227 227 228 230 228 224 221 215 210 217 228 231 237 249 257 265 279 295 310 315 316 319 323 322 327 329 317 307 301 306 314 320 327 310 299 329 18 359 11 40 56 67 72 68 62 57 59 61 63 69 73 72 73 71 70 74 76 74 75 76 72 68 68 71 72 74 78 75 68 70 75
217 218 221 221 219 219 222 227 229 227 223 219 219 222 225 225 228 230 228 225 220 212 209 218 228 232 237 247 256 263 272 288 303 310 312 315 317 308 294 299 302 289 282 295 302 308 322 319 301 12 51 6 347 29 62 75 85 82 72 64 64 70 78 80 75 73 79 80 76 77 80 80 76 73 69 67 67 70 74 80 84 84 78 73 73
217 217 218 221 220 220 223 227 228 224 218 215 215 218 222 223 226 229 229 226 219 212 212 221 229 232 235 243 254 262 268 281 297 306 309 310 307 291 276 281 281 272 269 281 290 302 319 318 190 142 168 182 156 29 56 76 91 95 83 75 71 69 78 89 88 80 77 87 89 81 82 87 84 80 78 73 65 64 70 77 83 86 84 79 77
218 218 217 219 219 217 221 224 224 221 215 211 211 214 219 222 224 229 230 227 220 214 215 222 229 233 235 240 251 260 266 275 290 303 306 304 298 283 263 252 260 262 258 268 288 304 312 246 149 152 174 162 126 53 67 85 100 107 95 87 84 78 82 90 93 89 84 93 100 92 87 92 90 86 83 75 65 65 69 73 80 85 86 86 89
218 221 216 214 215 215 219 224 224 219 213 210 210 211 216 221 224 228 230 228 223 218 219 224 230 234 237 242 249 257 266 272 284 299 301 298 293 281 257 242 245 250 255 267 283 285 277 145 143 155 165 149 133 137 114 102 110 120 106 95 96 96 96 94 91 91 89 92 100 100 98 97 91 85 80 74 72 76 77 77 79 82 80 72 74
218 219 210 207 210 213 218 226 226 219 213 211 210 211 214 219 224 228 229 228 225 222 222 226 231 236 242 246 250 257 264 268 278 291 295 291 288 275 251 239 239 246 252 262 268 253 209 141 142 154 164 162 162 151 124 109 114 126 115 104 102 99 99 99 96 99 99 96 99 102 100 93 87 83 80 74 72 73 75 75 75 79 79 68 61
218 213 204 202 207 212 219 230 228 220 214 211 212 214 216 218 222 227 229 229 227 224 225 229 233 239 247 249 251 256 260 263 272 284 288 284 281 269 248 234 232 243 249 251 252 235 177 152 150 156 166 162 157 148 128 110 109 124 120 111 108 99 96 101 106 114 118 115 114 115 114 111 105 100 90 75 68 65 62 63 68 75 81 82 77
212 202 196 200 205 208 215 221 220 216 211 211 215 219 222 222 223 225 229 229 227 225 227 231 235 240 247 249 250 254 257 260 265 276 281 278 272 260 245 231 227 236 239 239 240 225 172 162 156 160 168 160 155 150 131 111 105 117 120 118 115 106 104 108 109 112 116 119 121 121 117 115 111 104 92 79 74 71 62 61 69 73 76 84 88
217 178 168 184 198 200 203 204 206 211 211 211 216 219 223 225 225 226 228 229 227 226 227 232 236 241 249 251 251 252 254 254 259 268 274 271 266 254 237 226 226 228 228 232 233 216 177 176 165 161 168 163 160 152 133 117 112 114 116 121 123 114 109 114 111 106 104 103 105 106 101 96 91 85 81 78 78 77 70 66 70 72 76 82 89
152 123 116 123 144 164 182 186 187 203 219 226 230 229 232 236 233 230 228 227 227 227 228 232 236 242 251 253 249 249 249 248 252 263 268 265 260 249 232 225 225 222 223 232 230 204 185 190 180 167 165 165 164 156 139 127 121 115 113 121 128 128 130 134 124 109 99 95 94 94 91 84 76 69 66 67 73 76 78 83 82 81 84 84 87
153 138 136 126 123 139 160 166 169 187 210 220 229 231 239 251 247 237 233 233 232 231 231 236 241 247 254 254 246 245 247 247 249 258 263 261 257 245 230 224 223 221 223 227 222 202 184 188 190 175 164 168 171 162 148 139 133 128 126 130 135 137 143 152 148 135 127 128 121 115 109 98 89 82 71 65 67 67 79 100 96 89 88 83 83
251 265 168 145 144 180 194 181 167 174 170 133 344 244 233 253 257 247 242 240 239 239 240 244 248 254 259 255 245 243 246 245 246 254 256 255 254 242 228 223 220 219 221 218 211 199 186 189 194 184 172 174 174 167 158 150 145 140 138 143 149 144 139 148 149 139 132 129 116 107 106 98 93 97 92 82 72 66 81 103 103 102 110 105 94
244 253 234 225 243 235 235 232 217 202 192 219 336 336 331 303 280 263 258 250 244 245 248 250 254 259 263 260 247 244 246 243 241 248 252 252 250 240 226 222 219 217 217 212 205 199 196 197 198 188 178 177 175 171 166 159 154 149 143 147 149 138 130 137 141 127 119 120 109 98 98 95 92 95 94 94 100 101 102 107 107 113 125 126 120
237 244 241 241 248 262 260 249 248 250 235 267 305 322 360 356 323 284 273 264 254 250 249 251 254 257 261 261 251 244 246 242 237 243 248 248 247 240 228 222 218 217 215 210 206 205 203 200 196 188 183 181 178 175 171 166 164 159 153 154 148 133 128 136 142 130 130 132 121 110 106 102 98 97 96 98 107 109 109 111 112 112 118 122 122
239 240 235 232 240 259 264 256 258 257 250 274 291 293 317 334 325 297 279 269 263 260 255 253 256 256 259 262 255 248 246 241 236 240 246 245 244 241 231 221 217 215 212 210 210 208 204 199 195 191 186 182 178 177 178 175 168 163 163 160 149 132 127 136 142 138 135 129 119 117 117 112 110 113 113 110 109 110 111 113 115 116 116 114 112
233 232 227 226 236 253 262 264 267 259 246 259 272 277 297 316 308 286 280 268 255 258 262 260 259 256 253 250 243 238 240 238 234 235 241 243 242 238 228 219 216 212 209 211 211 205 199 196 195 190 184 180 177 177 179 176 168 165 161 148 135 128 132 140 143 135 127 125 125 125 123 121 120 120 115 107 104 107 113 115 113 112 109 105 101
218 220 224 228 237 246 252 260 266 257 242 247 258 268 287 301 286 277 282 269 249 251 258 254 247 243 241 242 238 239 250 252 244 238 238 240 238 232 223 216 213 209 208 211 207 198 194 195 195 191 183 178 176 176 178 176 168 161 150 135 130 143 149 147 145 136 132 137 136 128 124 124 121 116 109 105 106 111 114 113 109 105 102 97 93
223 219 227 234 236 240 243 245 248 246 242 249 261 268 277 281 267 263 269 266 260 260 259 252 246 242 247 253 254 255 259 255 244 237 236 236 233 227 220 213 208 205 207 209 202 194 192 193 193 190 183 175 173 173 175 172 163 153 144 138 146 157 155 152 150 146 144 145 140 136 137 133 122 112 106 108 115 119 116 113 112 111 107 99 92
232 226 229 235 236 240 246 245 242 244 246 249 253 255 258 259 255 250 251 254 257 258 258 257 254 249 249 253 250 247 245 240 238 238 238 238 237 232 225 218 209 203 206 209 201 193 192 192 190 186 181 173 171 174 175 171 164 162 164 164 166 168 165 158 153 151 151 149 148 148 145 136 126 118 114 117 122 123 124 129 130 129 122 110 102
247 237 230 230 232 236 245 246 243 245 248 249 247 247 249 254 257 257 256 252 248 247 249 252 252 249 244 239 237 236 230 230 240 242 240 241 242 240 237 230 216 206 212 213 200 191 190 191 189 185 180 175 175 181 184 181 180 183 182 174 174 178 173 160 156 158 156 152 153 152 146 143 143 141 139 143 141 137 140 143 140 137 135 127 120
260 258 244 234 229 229 235 240 243 246 251 255 257 257 256 258 261 264 264 261 256 251 248 248 248 246 241 235 233 233 232 232 234 231 231 236 237 237 239 234 218 209 218 214 199 191 190 190 188 187 184 180 180 185 188 188 187 188 186 180 178 181 176 169 170 169 160 154 156 158 158 163 164 158 159 161 156 155 159 155 149 148 149 144 138
250 260 260 251 242 237 240 245 247 248 249 252 253 253 254 256 256 257 260 262 261 260 257 252 245 239 238 237 234 227 221 221 220 216 217 227 231 230 231 227 217 211 213 205 195 192 195 194 192 192 190 187 186 187 188 188 188 189 189 185 182 183 182 179 179 176 168 163 164 168 172 175 174 173 173 166 160 165 169 166 167 174 174 169 166
256 250 254 255 251 244 242 243 243 242 244 249 251 251 253 255 255 256 261 263 263 262 258 248 234 227 229 231 227 220 215 213 214 212 210 218 227 227 223 220 215 210 206 200 196 197 200 199 198 198 196 193 190 188 188 189 190 191 190 189 187 186 184 185 184 179 174 174 176 179 181 181 180 180 175 167 165 167 168 171 180 191 193 192 188
290 270 257 253 249 244 239 238 240 244 248 253 258 260 261 261 262 265 269 270 268 261 249 234 222 221 225 225 223 222 218 213 214 212 207 209 220 222 217 213 210 205 202 201 200 203 204 201 199 201 201 197 191 188 188 189 192 192 191 191 191 186 185 192 191 181 175 181 185 185 186 186 183 180 178 176 176 177 177 180 187 194 197 196 191
300 296 281 261 247 240 239 239 242 249 255 258 263 267 268 266 268 271 272 273 273 262 245 230 221 220 222 225 228 225 216 211 212 210 203 203 212 213 210 207 205 204 205 206 207 208 207 203 200 202 204 199 192 190 190 189 191 193 191 190 190 187 190 197 194 182 179 185 187 186 190 190 186 184 184 183 185 189 190 189 191 194 195 195 192
304 305 304 290 265 246 238 239 246 254 261 263 263 266 268 269 271 273 275 278 280 274 260 243 230 223 219 220 226 225 214 209 208 204 197 199 205 205 203 203 202 203 205 207 210 212 210 205 203 204 204 200 195 193 192 192 192 193 192 191 190 190 194 196 191 183 181 185 187 188 191 191 189 191 192 191 194 197 195 194 197 195 192 192 192
307 302 305 307 299 284 267 259 260 264 267 267 263 263 266 268 267 268 271 271 264 259 256 245 230 222 217 214 218 219 212 207 204 200 195 196 201 202 202 202 203 204 206 207 209 211 209 208 209 207 204 201 198 194 193 193 193 193 193 192 192 194 195 192 190 187 184 182 187 190 189 190 193 196 197 198 200 200 198 197 196 189 186 190 191
315 305 301 299 299 298 292 282 275 272 271 268 264 263 265 265 262 260 265 262 241 230 237 240 233 223 214 206 205 207 206 205 204 200 197 197 200 203 205 205 206 208 210 210 210 208 205 207 211 211 206 202 200 196 195 195 195 196 196 194 194 197 197 194 194 193 188 184 189 192 191 192 195 196 198 201 201 200 200 198 191 186 188 190 187
316 311 304 296 289 287 285 283 282 281 281 278 273 268 266 264 259 254 253 252 237 225 232 244 249 241 224 210 204 204 205 205 205 203 202 201 199 201 205 207 209 212 213 213 214 213 207 205 209 212 209 204 201 198 197 198 198 198 199 198 197 198 198 198 199 198 193 189 192 195 193 194 197 197 197 199 199 198 198 196 191 189 192 190 185
310 314 313 307 299 290 280 274 274 281 285 286 282 278 272 265 259 254 249 244 235 229 230 237 245 247 239 225 216 212 211 211 210 209 208 206 202 200 202 207 211 215 216 216 219 219 212 207 208 211 209 205 203 200 198 199 200 199 199 200 201 201 201 201 203 202 198 193 194 196 195 194 197 197 196 198 199 199 197 195 193 191 190 188 188
298 305 308 308 309 306 292 275 269 273 279 282 283 284 280 270 263 257 251 243 235 232 231 231 234 239 240 232 225 221 219 219 217 214 212 211 207 204 203 205 211 217 217 218 221 221 214 209 209 210 208 205 204 203 201 199 198 199 198 198 201 204 204 203 204 204 200 196 195 197 197 196 197 198 198 197 197 197 198 197 195 194 193 192 193
290 288 291 298 306 309 305 288 272 267 268 273 277 281 280 274 267 262 257 250 240 234 232 231 230 232 233 231 230 229 227 227 228 227 223 220 217 212 206 204 209 216 217 218 219 217 213 210 209 209 208 206 204 206 205 201 198 199 201 200 201 203 204 203 202 201 199 198 199 200 200 200 199 198 198 199 197 195 197 198 197 197 197 196 195
292 285 279 281 290 297 302 308 298 282 273 272 275 276 274 268 262 258 256 252 245 238 236 235 233 231 227 222 221 223 224 227 230 231 230 227 224 218 213 210 214 218 219 217 215 213 212 211 211 210 210 209 208 208 208 205 201 201 201 202 202 202 202 202 201 199 197 199 200 201 201 202 201 199 197 198 198 196 197 199 199 199 199 199 198
295 292 285 278 275 276 281 290 298 295 289 284 278 272 268 262 256 251 251 249 244 238 235 233 234 233 228 216 210 212 217 220 223 227 229 229 225 220 218 218 220 223 223 219 214 212 213 214 214 214 215 214 213 213 211 207 205 203 202 203 205 203 202 201 202 200 198 198 200 200 199 199 200 200 197 196 197 199 199 199 199 199 201 202 202
293 295 293 287 280 275 272 274 278 283 288 291 286 276 266 260 255 251 250 246 242 238 232 227 229 233 228 214 204 205 210 214 216 220 225 226 223 222 223 224 225 226 227 223 217 215 216 216 216 217 218 218 217 216 214 211 207 206 205 205 205 204 203 202 202 202 201 200 200 200 199 197 198 199 197 196 197 198 200 200 200 201 201 203 205
292 291 291 289 284 278 273 272 273 273 278 284 286 280 271 265 258 253 249 243 237 236 234 229 229 230 225 213 205 205 206 209 212 216 220 222 223 223 225 227 227 227 228 227 223 220 220 220 220 219 220 219 218 217 216 214 210 208 208 207 207 207 205 204 203 204 204 203 202 201 200 199 197 197 197 198 199 200 201 202 203 202 203 204 207
289 286 284 283 282 280 276 273 270 268 270 275 276 274 272 268 260 253 250 245 238 233 229 229 233 232 224 214 208 207 206 207 210 213 216 219 222 224 226 227 227 226 226 227 227 226 225 223 222 221 221 220 218 218 217 216 213 212 211 209 208 209 208 206 206 206 205 205 205 203 202 201 199 197 197 198 200 202 203 203 204 204 205 206 208
289 287 283 279 277 276 277 275 270 265 263 265 266 266 267 266 260 252 246 243 240 233 225 226 235 236 229 220 213 211 210 211 212 213 215 218 221 224 225 225 225 225 226 227 228 228 228 226 224 223 223 222 220 219 218 217 216 216 216 213 210 209 207 207 207 207 206 206 206 204 203 203 201 199 199 198 199 202 204 203 204 205 205 206 208
287 283 281 280 276 273 272 273 272 268 263 261 261 262 263 264 262 256 248 241 241 239 233 229 235 240 239 231 222 216 214 215 215 216 218 218 218 219 220 220 220 222 225 226 225 226 227 225 223 223 224 223 221 220 219 217 218 220 221 219 216 213 209 206 204 204 205 206 205 204 203 203 201 200 200 200 200 201 203 204 205 205 206 208 209
285 280 277 277 275 273 269 267 267 267 265 262 260 259 258 256 257 257 252 246 245 245 244 242 244 247 247 241 231 224 219 217 217 219 220 219 218 216 216 217 218 220 222 223 223 223 223 222 221 223 224 223 221 221 220 220 220 222 224 224 221 218 214 210 207 205 204 204 204 203 203 202 201 201 201 202 202 202 203 204 206 206 207 208 211
282 279 276 273 271 271 271 269 265 263 263 262 259 256 254 250 249 251 253 251 249 248 247 248 249 249 245 240 235 229 222 217 217 218 218 217 217 215 213 215 218 220 220 221 223 223 222 221 221 221 222 222 222 222 222 222 223 224 225 224 223 220 217 213 213 214 213 208 204 202 202 203 202 201 202 203 203 204 204 205 206 207 209 210 211
280 278 276 274 270 268 268 268 265 261 260 260 258 255 253 251 249 248 250 253 252 251 250 251 254 254 247 238 233 230 224 220 218 217 216 216 216 215 215 218 221 221 220 221 223 224 223 222 222 221 222 223 224 224 224 225 226 226 224 223 221 219 215 213 214 218 218 213 207 204 203 203 202 201 202 202 203 205 207 207 206 207 211 213 214